GW5461 Weather Reports


time (UTC)temp
C
wind
direction
speed
KPH
gust
KPH
rain 1hr
cm
rain 24hr
cm
rain mn
cm
humidity
%
barometer
mb
20260504080313 8 52 3.2 4.8 0.00 0.00 0.00 58 1015.5
20260504070240 10 336 1.6 3.2 0.00 0.00 0.00 50 1014.5
20260504060201 11 359 3.2 4.8 0.00 0.00 0.00 41 1012.9
20260504050629 12 21 1.6 3.2 0.00 0.00 0.00 40 1012.0
20260504050126 12 38 1.6 1.6 0.00 0.00 0.00 39 1012.0
20260504045623 12 313 4.8 4.8 0.00 0.00 0.00 39 1011.9
20260504045118 12 207 3.2 4.8 0.00 0.00 0.00 39 1011.8
20260504044616 12 37 1.6 3.2 0.00 0.00 0.00 40 1011.5
20260504044113 13 274 3.2 6.4 0.00 0.00 0.00 40 1011.3
20260504043610 13 212 4.8 6.4 0.00 0.00 0.00 40 1011.3
20260504043107 13 346 4.8 6.4 0.00 0.00 0.00 40 1010.8
20260504042604 12 244 3.2 3.2 0.00 0.00 0.00 42 1010.6
20260504042101 12 324 1.6 1.6 0.00 0.00 0.00 42 1010.4
20260504041556 12 325 4.8 6.4 0.00 0.00 0.00 42 1010.5
20260504041053 13 328 4.8 4.8 0.00 0.00 0.00 42 1010.4
20260504040550 13 309 3.2 4.8 0.00 0.00 0.00 41 1010.1
20260504040047 13 329 3.2 4.8 0.00 0.00 0.00 41 1009.8
20260504035544 13 40 3.2 3.2 0.00 0.00 0.00 40 1009.9
20260504035040 13 294 3.2 3.2 0.00 0.00 0.00 40 1009.7
20260504034538 13 345 1.6 1.6 0.00 0.00 0.00 40 1009.5
20260504034035 14 315 1.6 3.2 0.00 0.00 0.00 40 1009.6
20260504033533 14 316 0.0 0.0 0.00 0.00 0.00 39 1009.6
20260504033030 15 288 0.0 1.6 0.00 0.00 0.00 39 1009.4
20260504032527 15 350 0.0 1.6 0.00 0.00 0.00 38 1009.3
20260504032024 15 169 0.0 1.6 0.00 0.00 0.00 38 1009.2
20260504031521 15 336 0.0 1.6 0.00 0.00 0.00 37 1009.2
20260504031016 15 236 1.6 1.6 0.00 0.00 0.00 37 1009.0
20260504030514 15 348 3.2 3.2 0.00 0.00 0.00 37 1009.1
20260504030010 15 351 1.6 1.6 0.00 0.00 0.00 36 1009.0
20260504025507 16 324 1.6 3.2 0.00 0.00 0.00 36 1009.0
20260504025004 16 302 0.0 1.6 0.00 0.00 0.00 36 1008.7
20260504024501 16 285 4.8 6.4 0.00 0.00 0.00 35 1008.7
20260504023958 16 159 1.6 1.6 0.00 0.00 0.00 34 1008.7
20260504023454 17 1 1.6 1.6 0.00 0.00 0.00 33 1008.7
20260504022950 17 300 0.0 0.0 0.00 0.00 0.00 33 1008.6
20260504022446 17 359 0.0 1.6 0.00 0.00 0.00 32 1008.7
20260504021943 18 275 0.0 1.6 0.00 0.00 0.00 31 1008.6
20260504021441 18 328 3.2 3.2 0.00 0.00 0.00 30 1008.5
20260504020938 18 336 1.6 1.6 0.00 0.00 0.00 29 1008.5
20260504020434 19 352 3.2 4.8 0.00 0.00 0.00 28 1008.5
20260504015931 19 349 4.8 4.8 0.00 0.00 0.00 26 1008.5
20260504015427 20 320 4.8 4.8 0.00 0.00 0.00 26 1008.5
20260504014923 20 336 8.0 9.7 0.00 0.00 0.00 25 1008.7
20260504014419 20 315 6.4 6.4 0.00 0.00 0.00 25 1008.5
20260504013916 20 315 6.4 6.4 0.00 0.00 0.00 25 1008.6
20260504013415 21 338 8.0 11.3 0.00 0.00 0.00 24 1008.6
20260504012910 21 323 4.8 4.8 0.00 0.00 0.00 24 1008.4
20260504012409 21 329 4.8 6.4 0.00 0.00 0.00 24 1008.5
20260504011905 21 346 6.4 6.4 0.00 0.00 0.00 23 1008.4
20260504011403 21 330 11.3 14.5 0.00 0.00 0.00 23 1008.6
20260504010858 22 332 9.7 11.3 0.00 0.00 0.00 23 1008.6
20260504010354 22 317 9.7 11.3 0.00 0.00 0.00 23 1008.6
20260504005851 22 315 6.4 6.4 0.00 0.00 0.00 23 1008.7
20260504005348 22 317 6.4 9.7 0.00 0.00 0.00 23 1008.7
20260504004845 22 334 6.4 6.4 0.00 0.00 0.00 23 1009.0
20260504004343 22 306 8.0 9.7 0.00 0.00 0.00 23 1009.0
20260504003839 23 335 4.8 4.8 0.00 0.00 0.00 23 1009.0
20260504003336 23 331 8.0 12.9 0.00 0.00 0.00 23 1009.0
20260504002833 23 335 8.0 9.7 0.00 0.00 0.00 23 1009.0
20260504002329 23 331 4.8 6.4 0.00 0.00 0.00 23 1009.1
20260504001827 22 321 12.9 14.5 0.00 0.00 0.00 23 1009.0
20260504001324 22 307 12.9 16.1 0.00 0.00 0.00 23 1009.2
20260504000821 22 339 9.7 11.3 0.00 0.00 0.00 23 1009.1
20260504000318 22 338 8.0 9.7 0.00 0.00 0.00 23 1009.3
20260503235816 23 328 6.4 9.7 0.00 0.00 0.00 23 1009.0
20260503235313 23 295 14.5 22.5 0.00 0.00 0.00 23 1009.2
20260503234810 23 328 8.0 11.3 0.00 0.00 0.00 23 1009.0
20260503234308 23 345 9.7 11.3 0.00 0.00 0.00 23 1009.2
20260503233806 23 337 8.0 11.3 0.00 0.00 0.00 23 1009.2
20260503233301 23 319 11.3 12.9 0.00 0.00 0.00 22 1009.2
20260503232758 23 343 12.9 14.5 0.00 0.00 0.00 22 1009.2
20260503232256 23 307 12.9 16.1 0.00 0.00 0.00 23 1009.2
20260503231753 23 354 11.3 12.9 0.00 0.00 0.00 23 1009.2
20260503231250 23 309 12.9 14.5 0.00 0.00 0.00 23 1009.2
20260503230746 23 329 12.9 14.5 0.00 0.00 0.00 23 1009.3
20260503230244 23 326 9.7 12.9 0.00 0.00 0.00 23 1009.2
20260503225741 23 315 17.7 24.1 0.00 0.00 0.00 22 1009.5
20260503225241 23 343 17.7 17.7 0.00 0.00 0.00 23 1009.5
20260503224738 23 320 19.3 22.5 0.00 0.00 0.00 23 1009.4
20260503224236 23 328 24.1 33.8 0.00 0.00 0.00 22 1009.3
20260503223733 24 337 12.9 20.9 0.00 0.00 0.00 22 1009.2
20260503223231 24 331 14.5 16.1 0.00 0.00 0.00 23 1009.5
20260503222727 25 280 12.9 16.1 0.00 0.00 0.00 23 1009.6
20260503222225 24 342 9.7 12.9 0.00 0.00 0.00 24 1009.5
20260503221723 24 331 12.9 14.5 0.00 0.00 0.00 23 1009.7
20260503221220 23 299 6.4 6.4 0.00 0.00 0.00 23 1009.7
20260503220717 24 227 17.7 20.9 0.00 0.00 0.00 22 1009.8
20260503220214 24 347 11.3 14.5 0.00 0.00 0.00 23 1010.1
20260503215710 23 314 9.7 11.3 0.00 0.00 0.00 24 1009.7
20260503215208 23 335 14.5 16.1 0.00 0.00 0.00 23 1009.9
20260503214706 23 307 16.1 17.7 0.00 0.00 0.00 23 1009.9
20260503214202 23 307 12.9 16.1 0.00 0.00 0.00 24 1009.9
20260503213701 23 308 6.4 9.7 0.00 0.00 0.00 23 1010.2
20260503213157 23 306 17.7 20.9 0.00 0.00 0.00 23 1010.2
20260503212654 23 348 6.4 9.7 0.00 0.00 0.00 24 1010.2
20260503212152 23 321 20.9 27.4 0.00 0.00 0.00 23 1010.4
20260503211649 23 329 9.7 9.7 0.00 0.00 0.00 23 1010.3
20260503211144 23 341 17.7 20.9 0.00 0.00 0.00 23 1010.5
20260503210641 23 323 12.9 14.5 0.00 0.00 0.00 23 1010.7
20260503210138 23 318 20.9 27.4 0.00 0.00 0.00 23 1010.6
20260503205633 23 294 8.0 9.7 0.00 0.00 0.00 24 1011.0
20260503205130 23 326 9.7 11.3 0.00 0.00 0.00 23 1010.7
20260503204627 22 284 6.4 11.3 0.00 0.00 0.00 24 1010.7
20260503204125 23 335 16.1 17.7 0.00 0.00 0.00 23 1010.7
20260503203621 22 347 16.1 17.7 0.00 0.00 0.00 24 1010.9
20260503203119 22 293 4.8 6.4 0.00 0.00 0.00 24 1010.8
20260503202616 23 283 8.0 9.7 0.00 0.00 0.00 24 1010.9
20260503202114 22 313 14.5 20.9 0.00 0.00 0.00 24 1011.0
20260503201612 22 330 9.7 12.9 0.00 0.00 0.00 23 1011.3
20260503201109 23 327 16.1 22.5 0.00 0.00 0.00 22 1011.3
20260503200605 22 276 8.0 12.9 0.00 0.00 0.00 24 1011.0
20260503195559 23 342 6.4 6.4 0.00 0.00 0.00 22 1011.5
20260503195055 23 299 14.5 16.1 0.00 0.00 0.00 23 1011.5
20260503194553 23 337 8.0 9.7 0.00 0.00 0.00 22 1011.5
20260503194052 23 302 16.1 20.9 0.00 0.00 0.00 22 1011.7
20260503193544 22 329 6.4 6.4 0.00 0.00 0.00 22 1011.6
20260503193039 22 261 16.1 25.7 0.00 0.00 0.00 22 1011.7
20260503192535 21 311 16.1 17.7 0.00 0.00 0.00 23 1011.7
20260503192031 21 315 6.4 6.4 0.00 0.00 0.00 24 1011.7
20260503191528 22 329 16.1 17.7 0.00 0.00 0.00 21 1011.8
20260503191025 22 270 14.5 16.1 0.00 0.00 0.00 22 1011.9
20260503190522 22 333 17.7 24.1 0.00 0.00 0.00 23 1011.8
20260503190019 22 290 12.9 17.7 0.00 0.00 0.00 22 1011.9
20260503185515 22 285 6.4 6.4 0.00 0.00 0.00 23 1012.0
20260503185015 21 316 17.7 20.9 0.00 0.00 0.00 23 1011.9
20260503184511 22 329 16.1 16.1 0.00 0.00 0.00 23 1012.2
20260503184008 22 358 20.9 30.6 0.00 0.00 0.00 23 1012.4
20260503183504 21 0 11.3 14.5 0.00 0.00 0.00 24 1012.3
20260503183001 22 307 17.7 24.1 0.00 0.00 0.00 23 1012.2
20260503182500 22 238 17.7 24.1 0.00 0.00 0.00 23 1012.3
20260503181957 21 301 11.3 12.9 0.00 0.00 0.00 24 1012.5
20260503181454 22 278 11.3 14.5 0.00 0.00 0.00 23 1012.6
20260503180950 21 305 9.7 12.9 0.00 0.00 0.00 23 1012.6
20260503180449 21 314 12.9 14.5 0.00 0.00 0.00 23 1012.6
20260503175945 22 340 11.3 14.5 0.00 0.00 0.00 23 1012.7
20260503175443 21 295 14.5 16.1 0.00 0.00 0.00 24 1012.8
20260503174939 21 301 9.7 12.9 0.00 0.00 0.00 25 1012.9
20260503174438 22 311 14.5 14.5 0.00 0.00 0.00 24 1012.7
20260503173937 21 332 9.7 12.9 0.00 0.00 0.00 25 1012.8
20260503173434 21 312 14.5 16.1 0.00 0.00 0.00 25 1013.0
20260503172931 21 333 16.1 24.1 0.00 0.00 0.00 25 1013.1
20260503172428 21 298 8.0 9.7 0.00 0.00 0.00 26 1012.9
20260503171924 21 302 12.9 12.9 0.00 0.00 0.00 26 1012.8
20260503171421 21 347 17.7 25.7 0.00 0.00 0.00 25 1013.1
20260503170919 21 276 14.5 20.9 0.00 0.00 0.00 25 1013.1
20260503170415 21 311 14.5 17.7 0.00 0.00 0.00 25 1013.4
20260503150807 15 332 6.4 9.7 0.00 0.00 0.00 47 1013.7
20260503150303 15 339 9.7 12.9 0.00 0.00 0.00 48 1013.9
20260503140228 12 289 6.4 9.7 0.00 0.00 0.00 58 1014.0
20260503131157 7 276 3.2 3.2 0.00 0.00 0.00 77 1013.9
20260503130654 6 299 1.6 1.6 0.00 0.00 0.00 79 1014.1
20260503130152 6 285 3.2 4.8 0.00 0.00 0.00 78 1014.1
20260503120117 5 302 3.2 3.2 0.00 0.00 0.00 81 1014.5
20260503110544 5 284 3.2 3.2 0.00 0.00 0.00 79 1014.8
20260503090431 5 279 1.6 3.2 0.00 0.00 0.00 74 1015.7
20260503081358 6 285 0.0 0.0 0.00 0.00 0.00 71 1016.0
20260503080855 7 327 1.6 1.6 0.00 0.00 0.00 70 1016.1